STARLINK-3909, 52452

Orbit data source: Space-Track

STARLINK-3909, 52452 is a payload satellite owned by SpaceX/Seattle (US) in LEO that was launched on Fri, 06 May 2022 UTC via an FALCON 9 launch vehicle from the Air Force Eastern Test Range (AFETR). Payload-class satellites include a variety of spacecraft equipped with specific instruments for various scientific and technological missions. These include communications satellites like Starlink; space stations such as the ISS; scientific satellites like the Hubble; Earth observation satellites from companies like Planet Labs, Umbra, and HawkEye 360; GPS; miniature CubeSats for education and research; and military/defense satellites.

Loading next visibility...
Identifier
52452, 2022-049B
Orbit
LEO
Country
Flag of USUS
Related business
Manufacturer
SpaceX/Seattle
Mission
Operational Commercial Communications
Bus & Motor
STARLINK, Unknown motor
Mass
297 kg wet, ~220 kg dry
Launch date (UTC)
2022-05-06 (4 years ago)
Launch vehicle
FALCON 9
Launch site
Air Force Eastern Test Range (AFETR)
Object type
Payload
Rocket body
Debris
Shape & HBR
Box + 1 Pan, 10.1 m
Radar Cross Section
13.562 m², Large (>1 m²)

Expand to show TLE details & history
Last TLE update: 1 day ago

TLE from 1 day ago
0 STARLINK-3909
1 52452U 22049B   26206.30357445  .00000467  00000-0  47424-4 0  9994
2 52452  53.1609 170.8907 0001317  96.5510 263.5631 15.08837981232883
Epoch: 2026-07-25T07:17Z
TLE epoch observation values (Epoch: 2026-07-25T07:17:08.832Z)
Latitude
-0.00005°
Longitude
118.58607°
Altitude
540.743 km
Speed
7.593 km/s
True Right ascension
11h 23m 33s
True Declination
0° 00' 00"
Sunlit
Object was in daylight at epoch
Visualization orbit readout
Latitude
Unknown
Longitude
Unknown
Altitude
Unknown
Speed
Unknown
Apparent Right ascension
Unknown
Apparent Declination
Unknown
Sunlit
N/A
Visualization observer readout
Local Sidereal Time
22:11:07
Azimuth
Unknown
Elevation
Unknown
Doppler factor
Unknown
Orbital elements
Apogee altitude
540.915 km
Perigee altitude
539.092 km
Semi-major axis
6,918.141 km
Eccentricity
0.00013
Inclination
53.1609°
RAAN
170.8907°
Arg. of periapsis
96.551°
True anomaly
263.5481°
Mean anomaly
263.5631°
Eccentric anomaly
263.5556°
Mean motion
3.77189 °/min
Orbital period
95.44 mins
BSTAR
0.000047424
Loading maneuver chart data...
Computing Atmospheric mass density...
Loading historical data...
Loading historical data...
Loading historical data...
Loading historical data...
Loading historical data...
Loading historical data...
Loading historical data...

Documentation

Showing up to 5 results
|